Weather History for Pompano Beach, FL

Change the Weather History Date:

Monday, January 30, 2012

  Actual Average Record
Temperature  
Mean Temperature 74 °F -  
Max Temperature 77 °F 77 °F 87 °F (1949)
Min Temperature 71 °F 56 °F 31 °F (1978)
Cooling Degree Days 9    
Growing Degree Days 24 (Base 50)    
Moisture  
Dew Point 59 °F    
Average Humidity 62    
Maximum Humidity 68    
Minimum Humidity 54    
Precipitation  
Precipitation 0.00 in - - ()
Sea Level Pressure  
Sea Level Pressure 30.27 in    
Wind  
Wind Speed 14 mph (ENE)    
Max Wind Speed 18 mph    
Max Gust Speed 26 mph    
Visibility 10 miles    
Events      
Averages and records for this station are not official NWS values.
T = Trace of Precipitation, MM = Missing Value Source: NWS Daily Summary

Daily Weather History Graph

Daily Weather History Graph

Search for Another Location

Airport:

Trip Planner

Search our weather history database for the weather conditions in past years. The results will help you decide how hot, cold, wet, or windy it might be!

Date:

Astronomy

Jan. 30, 2012 Rise Set
Actual Time 7:06 AM EST 6:01 PM EST
Civil Twilight 6:41 AM EST 6:25 PM EST
Nautical Twilight 6:14 AM EST 6:53 PM EST
Astronomical Twilight 5:46 AM EST 7:21 PM EST
Moon 11:16 AM EST (1/30) No Moon Set
Length of Visible Light 11h 44m
Length of Day
10h 55m
Waxing Crescent, 46% of the Moon is Illuminated
Jan 30
Waxing Crescent
Jan 30
First Quarter
Feb 7
Full
Feb 14
Last Quarter
Feb 21
New

Hourly Weather History & Observations

Time (EST) Temp. Dew Point Humidity Pressure Visibility Wind Dir Wind Speed Gust Speed Precip Events Conditions
12:53 AM 72.0 °F 59.0 °F 64% 30.24 in 10.0 mi NE 11.5 mph - N/A   Scattered Clouds
1:53 AM 71.1 °F 60.1 °F 68% 30.24 in 10.0 mi NE 12.7 mph - N/A   Scattered Clouds
2:53 AM 71.1 °F 59.0 °F 66% 30.22 in 10.0 mi NE 15.0 mph - N/A   Scattered Clouds
3:53 AM 71.1 °F 59.0 °F 66% 30.22 in 10.0 mi NE 15.0 mph - N/A   Mostly Cloudy
4:53 AM 71.1 °F 57.9 °F 63% 30.22 in 10.0 mi NE 15.0 mph 21.9 mph N/A   Scattered Clouds
5:53 AM 71.1 °F 57.9 °F 63% 30.23 in 10.0 mi ENE 15.0 mph 20.7 mph N/A   Partly Cloudy
6:53 AM 71.1 °F 57.9 °F 63% 30.25 in 10.0 mi NE 12.7 mph - N/A   Mostly Cloudy
7:53 AM 72.0 °F 59.0 °F 64% 30.27 in 10.0 mi NE 15.0 mph 21.9 mph N/A   Scattered Clouds
8:53 AM 73.0 °F 57.9 °F 59% 30.29 in 10.0 mi NE 15.0 mph - N/A   Partly Cloudy
9:53 AM 75.0 °F 57.9 °F 55% 30.31 in 10.0 mi ENE 17.3 mph 21.9 mph N/A   Scattered Clouds
10:53 AM 75.0 °F 57.9 °F 55% 30.32 in 10.0 mi NE 16.1 mph 24.2 mph N/A   Scattered Clouds
11:53 AM 77.0 °F 59.0 °F 54% 30.30 in 10.0 mi NE 18.4 mph 25.3 mph N/A   Scattered Clouds
12:53 PM 75.9 °F 57.9 °F 54% 30.29 in 10.0 mi ENE 13.8 mph 26.5 mph N/A   Scattered Clouds
1:53 PM 75.9 °F 57.9 °F 54% 30.27 in 10.0 mi ENE 16.1 mph 24.2 mph N/A   Scattered Clouds
2:53 PM 75.0 °F 60.1 °F 60% 30.26 in 10.0 mi ENE 17.3 mph 25.3 mph N/A   Mostly Cloudy
3:53 PM 73.9 °F 60.1 °F 62% 30.26 in 10.0 mi ENE 16.1 mph 23.0 mph N/A   Mostly Cloudy
4:53 PM 73.0 °F 57.9 °F 59% 30.27 in 10.0 mi ENE 13.8 mph 23.0 mph N/A   Mostly Cloudy
5:53 PM 72.0 °F 57.0 °F 59% 30.27 in 10.0 mi ENE 15.0 mph - N/A   Scattered Clouds
6:53 PM 72.0 °F 61.0 °F 68% 30.28 in 10.0 mi ENE 17.3 mph 25.3 mph N/A   Scattered Clouds
8:53 PM 71.1 °F 59.0 °F 66% 30.29 in 10.0 mi ENE 15.0 mph 25.3 mph N/A   Scattered Clouds
9:53 PM 71.1 °F 59.0 °F 66% 30.30 in 10.0 mi ENE 16.1 mph - N/A   Mostly Cloudy
10:53 PM 71.1 °F 59.0 °F 66% 30.30 in 10.0 mi ENE 17.3 mph - N/A   Partly Cloudy
11:53 PM 71.1 °F 60.1 °F 68% 30.29 in 10.0 mi ENE 15.0 mph 23.0 mph N/A   Mostly Cloudy